DW3499 Weather Reports


time (UTC)temp
F
wind
direction
speed
knots
gust
knots
rain 1hr
in
rain 24hr
in
rain mn
in
humidity
%
barometer
mb
20211017145740 55 0 0.0 0.0 0.00 0.00 0.00 71 1011.6
20211017145218 56 0 0.0 0.0 0.00 0.00 0.00 70 1011.8
20211017144656 56 0 0.0 0.0 0.00 0.00 0.00 70 1011.8
20211017144134 56 0 0.0 0.0 0.00 0.00 0.00 71 1011.9
20211017143612 55 0 0.0 0.0 0.00 0.00 0.00 75 1011.9
20211017143050 54 0 0.0 0.0 0.00 0.00 0.00 76 1011.9
20211017142528 54 0 0.0 0.0 0.00 0.00 0.00 75 1011.7
20211017142006 54 0 0.0 0.0 0.00 0.00 0.00 75 1011.8
20211017141444 54 0 0.0 0.0 0.00 0.00 0.00 74 1011.7
20211017140922 53 0 0.0 0.0 0.00 0.00 0.00 74 1011.5
20211017140400 53 0 0.0 0.0 0.00 0.00 0.00 73 1011.6
20211017135838 53 0 0.0 0.0 0.00 0.00 0.00 72 1011.6
20211017135316 52 0 0.0 0.0 0.00 0.00 0.00 73 1011.5
20211017134754 52 0 0.0 0.0 0.00 0.00 0.00 72 1011.4
20211017134232 52 0 0.0 0.0 0.00 0.00 0.00 70 1011.4
20211017133710 52 0 0.0 0.0 0.00 0.00 0.00 71 1011.6
20211017133148 52 0 0.0 0.0 0.00 0.00 0.00 72 1011.6
20211017132626 52 0 0.0 0.0 0.00 0.00 0.00 72 1011.5
20211017132104 51 0 0.0 0.0 0.00 0.00 0.00 74 1011.4
20211017131542 51 0 0.0 0.0 0.00 0.00 0.00 74 1011.4
20211017131020 51 0 0.0 0.0 0.00 0.00 0.00 75 1011.3
20211017130458 50 0 0.0 0.0 0.00 0.00 0.00 77 1011.4
20211017125936 50 0 0.0 0.0 0.00 0.00 0.00 79 1011.4
20211017125414 49 0 0.0 0.0 0.00 0.00 0.00 80 1011.3
20211017124852 48 0 0.0 0.0 0.00 0.00 0.00 79 1011.2
20211017124331 49 0 0.0 0.0 0.00 0.00 0.00 79 1011.2
20211017123810 49 0 0.0 0.0 0.00 0.00 0.00 79 1011.2
20211017123248 49 0 0.0 0.0 0.00 0.00 0.00 79 1011.3
20211017122726 49 0 0.0 0.0 0.00 0.00 0.00 79 1011.2
20211017122204 49 0 0.0 0.0 0.00 0.00 0.00 79 1011.2
20211017121642 49 0 0.0 0.0 0.00 0.00 0.00 79 1011.4
20211017121120 49 0 0.0 0.0 0.00 0.00 0.00 80 1011.4
20211017120558 48 0 0.0 0.0 0.00 0.00 0.00 80 1011.4
20211017120036 48 0 0.0 0.0 0.00 0.00 0.00 80 1011.3
20211017115514 48 0 0.0 0.0 0.00 0.00 0.00 80 1011.4
20211017114952 49 0 0.0 0.0 0.00 0.00 0.00 80 1011.3
20211017114430 49 0 0.0 0.0 0.00 0.00 0.00 80 1011.3
20211017113908 49 0 0.0 0.0 0.00 0.00 0.00 80 1011.3
20211017113346 49 0 0.0 0.0 0.00 0.00 0.00 80 1011.4
20211017112824 49 0 0.0 0.0 0.00 0.00 0.00 80 1011.4
20211017112305 49 0 0.0 0.0 0.00 0.00 0.00 80 1011.4
20211017111740 49 0 0.0 0.0 0.00 0.00 0.00 79 1011.4
20211017111219 50 0 0.0 0.0 0.00 0.00 0.00 79 1011.5
20211017110656 50 0 0.0 0.0 0.00 0.00 0.00 78 1011.5
20211017110134 50 0 0.0 0.0 0.00 0.00 0.00 77 1011.6
20211017105612 50 0 0.0 0.0 0.00 0.00 0.00 77 1011.6
20211017105050 50 0 0.0 0.0 0.00 0.00 0.00 76 1011.7
20211017104528 50 0 0.0 0.0 0.00 0.00 0.00 76 1011.7
20211017104006 50 0 0.0 0.0 0.00 0.00 0.00 76 1011.7
20211017103444 50 0 0.0 0.0 0.00 0.00 0.00 75 1011.8
20211017102922 50 0 0.0 0.0 0.00 0.00 0.00 76 1011.8
20211017102400 50 0 0.0 0.0 0.00 0.00 0.00 75 1011.9
20211017101838 50 0 0.0 0.0 0.00 0.00 0.00 75 1011.9
20211017101316 50 0 0.0 0.0 0.00 0.00 0.00 74 1012.0
20211017100754 51 0 0.0 0.0 0.00 0.00 0.00 74 1011.9
20211017100232 51 0 0.0 0.0 0.00 0.00 0.00 73 1012.0
20211017095710 51 0 0.0 0.0 0.00 0.00 0.00 73 1012.0
20211017095149 51 0 0.0 0.0 0.00 0.00 0.00 73 1011.9
20211017094626 51 0 0.0 0.0 0.00 0.00 0.00 72 1011.9
20211017094104 51 0 0.0 0.0 0.00 0.00 0.00 72 1012.0
20211017093542 51 0 0.0 0.0 0.00 0.00 0.00 71 1012.1
20211017093020 52 0 0.0 0.0 0.00 0.00 0.00 71 1012.1
20211017092459 52 0 0.0 0.0 0.00 0.00 0.00 70 1012.1
20211017091936 52 0 0.0 0.0 0.00 0.00 0.00 71 1012.2
20211017091414 52 0 0.0 0.0 0.00 0.00 0.00 70 1012.3
20211017090852 52 0 0.0 0.0 0.00 0.00 0.00 70 1012.3
20211017090330 52 0 0.0 0.0 0.00 0.00 0.00 70 1012.4
20211017085808 53 0 0.0 0.0 0.00 0.00 0.00 70 1012.4
20211017085246 53 0 0.0 0.0 0.00 0.00 0.00 69 1012.4
20211017084724 53 0 0.0 0.0 0.00 0.00 0.00 68 1012.4
20211017084202 54 0 0.0 0.0 0.00 0.00 0.00 67 1012.5
20211017083640 54 0 0.0 0.0 0.00 0.00 0.00 66 1012.4
20211017083118 54 0 0.0 0.0 0.00 0.00 0.00 66 1012.5
20211017082556 54 0 0.0 0.0 0.00 0.00 0.00 65 1012.5
20211017082034 54 0 0.0 0.0 0.00 0.00 0.00 63 1012.4
20211017081512 55 0 0.0 0.0 0.00 0.00 0.00 63 1012.5
20211017080950 55 0 0.0 0.0 0.00 0.00 0.00 61 1012.6
20211017080428 56 0 0.0 0.0 0.00 0.00 0.00 59 1012.6
20211017075906 56 0 0.0 0.0 0.00 0.00 0.00 59 1012.6
20211017075344 57 0 0.0 0.0 0.00 0.00 0.00 58 1012.6
20211017074822 56 0 0.0 0.0 0.00 0.00 0.00 58 1012.6
20211017074300 57 0 0.0 0.0 0.00 0.00 0.00 57 1012.6
20211017073738 57 0 0.0 0.0 0.00 0.00 0.00 56 1012.6
20211017073216 58 0 0.0 0.0 0.00 0.00 0.00 54 1012.5
20211017072654 58 0 0.0 0.0 0.00 0.00 0.00 54 1012.5
20211017072132 58 0 0.0 0.0 0.00 0.00 0.00 53 1012.6
20211017071610 58 0 0.0 0.0 0.00 0.00 0.00 53 1012.7
20211017071048 57 0 0.0 0.0 0.00 0.00 0.00 53 1012.8
20211017070526 56 0 0.0 0.0 0.00 0.00 0.00 56 1012.8
20211017070004 56 0 0.0 0.0 0.00 0.00 0.00 55 1012.8
20211017065443 56 0 0.0 0.0 0.00 0.00 0.00 59 1012.9
20211017064921 55 0 0.0 0.0 0.00 0.00 0.00 63 1012.9
20211017064359 55 0 0.0 0.0 0.00 0.00 0.00 63 1012.9
20211017063837 56 0 0.0 0.0 0.00 0.00 0.00 62 1012.9
20211017063315 56 0 0.0 0.0 0.00 0.00 0.00 64 1012.9
20211017062753 55 0 0.0 0.0 0.00 0.00 0.00 69 1013.0
20211017062231 56 0 0.0 0.0 0.00 0.00 0.00 69 1012.9
20211017061709 56 0 0.0 0.0 0.00 0.00 0.00 69 1013.0
20211017061147 56 0 0.0 0.0 0.00 0.00 0.00 71 1013.0
20211017060625 56 0 0.0 0.0 0.00 0.00 0.00 71 1013.0
20211017060103 56 0 0.0 0.0 0.00 0.00 0.00 72 1013.0
20211017055540 56 0 0.0 0.0 0.00 0.00 0.00 73 1013.1
20211017055019 56 0 0.0 0.0 0.00 0.00 0.00 74 1013.0
20211017054457 56 0 0.0 0.0 0.00 0.00 0.00 73 1013.0
20211017053934 56 0 0.0 0.0 0.00 0.00 0.00 73 1013.0
20211017053413 56 0 0.0 0.0 0.00 0.00 0.00 73 1013.0
20211017052851 56 0 0.0 0.0 0.00 0.00 0.00 73 1012.9
20211017052329 57 0 0.0 0.0 0.00 0.00 0.00 73 1012.9
20211017051806 57 0 0.0 0.0 0.00 0.00 0.00 73 1012.9
20211017051245 57 0 0.0 0.0 0.00 0.00 0.00 73 1012.9
20211017050723 57 0 0.0 0.0 0.00 0.00 0.00 72 1012.9
20211017050201 57 0 0.0 0.0 0.00 0.00 0.00 72 1012.9
20211017045639 58 0 0.0 0.0 0.00 0.00 0.00 72 1012.9
20211017045117 58 0 0.0 0.0 0.00 0.00 0.00 71 1012.9
20211017044555 58 0 0.0 0.0 0.00 0.00 0.00 71 1012.8
20211017044032 59 0 0.0 0.0 0.00 0.00 0.00 70 1012.8
20211017043510 59 0 0.0 0.0 0.00 0.00 0.00 70 1012.9
20211017042948 59 0 0.0 0.0 0.00 0.00 0.00 69 1012.9
20211017042427 60 0 0.0 0.0 0.00 0.00 0.00 68 1012.9
20211017041904 60 0 0.0 0.0 0.00 0.00 0.00 67 1012.7
20211017041340 60 0 0.0 0.0 0.00 0.00 0.00 66 1012.5
20211017040817 60 0 0.0 0.0 0.00 0.00 0.00 64 1012.6
20211017040255 60 0 0.0 0.0 0.00 0.00 0.00 63 1012.5
20211017035733 61 0 0.0 0.0 0.00 0.00 0.00 61 1012.5
20211017035211 62 0 0.0 0.0 0.00 0.00 0.00 58 1012.6
20211017034651 62 0 0.0 0.0 0.00 0.00 0.00 56 1012.6
20211017034128 63 0 0.0 0.0 0.00 0.00 0.00 54 1012.6
20211017033606 63 0 0.0 0.0 0.00 0.00 0.00 54 1012.5
20211017033045 63 0 0.0 0.0 0.00 0.00 0.00 53 1012.5
20211017032522 63 0 0.0 0.0 0.00 0.00 0.00 54 1012.6
20211017032001 63 0 0.0 0.0 0.00 0.00 0.00 51 1012.6
20211017031438 64 0 0.0 0.0 0.00 0.00 0.00 50 1012.5
20211017030917 64 0 0.0 0.0 0.00 0.00 0.00 49 1012.5
20211017030355 65 0 0.0 0.0 0.00 0.00 0.00 49 1012.5
20211017025832 65 0 0.0 0.0 0.00 0.00 0.00 47 1012.6
20211017025311 66 0 0.0 0.0 0.00 0.00 0.00 46 1012.5
20211017024748 66 0 0.0 0.0 0.00 0.00 0.00 46 1012.4
20211017024226 67 0 0.0 0.0 0.00 0.00 0.00 44 1012.4
20211017023704 67 0 0.0 0.0 0.00 0.00 0.00 42 1012.3
20211017023143 68 0 0.0 0.0 0.00 0.00 0.00 41 1012.4
20211017022620 68 0 0.0 0.0 0.00 0.00 0.00 41 1012.4
20211017022058 69 0 0.0 0.0 0.00 0.00 0.00 39 1012.4
20211017021537 70 0 0.0 0.0 0.00 0.00 0.00 38 1012.4
20211017021014 72 0 0.0 0.0 0.00 0.00 0.00 32 1012.2
20211017020453 73 0 0.0 0.0 0.00 0.00 0.00 23 1012.1
20211017015931 73 0 0.0 0.0 0.00 0.00 0.00 23 1012.0
20211017015408 73 0 0.0 0.0 0.00 0.00 0.00 23 1012.1
20211017014844 74 0 0.0 0.0 0.00 0.00 0.00 24 1012.0
20211017014322 74 0 0.0 0.0 0.00 0.00 0.00 23 1012.0
20211017013801 74 0 0.0 0.0 0.00 0.00 0.00 23 1011.9
20211017013239 74 0 0.0 0.0 0.00 0.00 0.00 24 1011.8
20211017012717 75 0 0.0 0.0 0.00 0.00 0.00 23 1011.9
20211017012155 75 0 0.0 0.0 0.00 0.00 0.00 23 1011.9
20211017011633 75 0 0.0 0.0 0.00 0.00 0.00 23 1011.9
20211017011111 76 0 0.0 0.0 0.00 0.00 0.00 22 1011.8
20211017010548 76 0 0.0 0.0 0.00 0.00 0.00 21 1011.8
20211017010027 77 0 0.0 0.0 0.00 0.00 0.00 21 1011.8
20211017005504 77 0 0.0 0.0 0.00 0.00 0.00 21 1011.8
20211017004943 78 0 0.0 0.0 0.00 0.00 0.00 21 1011.8
20211017004421 78 0 0.0 0.0 0.00 0.00 0.00 21 1011.9
20211017003858 78 0 0.0 0.0 0.00 0.00 0.00 21 1011.9
20211017003336 79 0 0.0 0.0 0.00 0.00 0.00 21 1012.0
20211017002814 79 0 0.0 0.0 0.00 0.00 0.00 20 1012.0
20211017002252 79 0 0.0 0.0 0.00 0.00 0.00 20 1012.0
20211017001730 80 0 0.0 0.0 0.00 0.00 0.00 21 1012.0
20211017001209 80 0 0.0 0.0 0.00 0.00 0.00 21 1012.0
20211017000646 80 0 0.0 0.0 0.00 0.00 0.00 21 1012.0
20211017000125 80 0 0.0 0.0 0.00 0.00 0.00 22 1012.0
20211016235603 80 0 0.0 0.0 0.00 0.00 0.00 22 1012.0
20211016235040 80 0 0.0 0.0 0.00 0.00 0.00 28 1012.1
20211016234519 80 0 0.0 0.0 0.00 0.00 0.00 28 1012.1
20211016233957 80 0 0.0 0.0 0.00 0.00 0.00 27 1012.1
20211016233434 80 0 0.0 0.0 0.00 0.00 0.00 27 1012.2
20211016232913 80 0 0.0 0.0 0.00 0.00 0.00 28 1012.2
20211016232351 80 0 0.0 0.0 0.00 0.00 0.00 29 1012.3
20211016231829 80 0 0.0 0.0 0.00 0.00 0.00 28 1012.3
20211016231307 80 0 0.0 0.0 0.00 0.00 0.00 26 1012.4
20211016230744 80 0 0.0 0.0 0.00 0.00 0.00 27 1012.3
20211016230222 80 0 0.0 0.0 0.00 0.00 0.00 26 1012.2
20211016225700 80 0 0.0 0.0 0.00 0.00 0.00 27 1012.3
20211016225138 80 0 0.0 0.0 0.00 0.00 0.00 27 1012.3
20211016224616 79 0 0.0 0.0 0.00 0.00 0.00 27 1012.3
20211016224055 79 0 0.0 0.0 0.00 0.00 0.00 28 1012.3
20211016223533 79 0 0.0 0.0 0.00 0.00 0.00 28 1012.4
20211016223010 79 0 0.0 0.0 0.00 0.00 0.00 28 1012.4
20211016222448 79 0 0.0 0.0 0.00 0.00 0.00 29 1012.4
20211016221927 79 0 0.0 0.0 0.00 0.00 0.00 29 1012.4
20211016221405 78 0 0.0 0.0 0.00 0.00 0.00 28 1012.4
20211016220842 79 0 0.0 0.0 0.00 0.00 0.00 28 1012.4
20211016220320 79 0 0.0 0.0 0.00 0.00 0.00 27 1012.5
20211016215759 79 0 0.0 0.0 0.00 0.00 0.00 28 1012.5
20211016215236 79 0 0.0 0.0 0.00 0.00 0.00 30 1012.5
20211016214714 79 0 0.0 0.0 0.00 0.00 0.00 30 1012.5
20211016214152 79 0 0.0 0.0 0.00 0.00 0.00 31 1012.6
20211016213631 79 0 0.0 0.0 0.00 0.00 0.00 32 1012.8
20211016213108 80 0 0.0 0.0 0.00 0.00 0.00 35 1012.8
20211016212547 80 0 0.0 0.0 0.00 0.00 0.00 34 1012.9
20211016212024 80 0 0.0 0.0 0.00 0.00 0.00 36 1012.9
20211016211503 80 0 0.0 0.0 0.00 0.00 0.00 34 1013.0
20211016210940 81 0 0.0 0.0 0.00 0.00 0.00 30 1013.0
20211016210419 80 0 0.0 0.0 0.00 0.00 0.00 32 1013.1
20211016205856 79 0 0.0 0.0 0.00 0.00 0.00 32 1013.2
20211016205334 79 0 0.0 0.0 0.00 0.00 0.00 34 1013.3
20211016204813 79 0 0.0 0.0 0.00 0.00 0.00 35 1013.5
20211016204251 80 0 0.0 0.0 0.00 0.00 0.00 34 1013.6
20211016203729 79 0 0.0 0.0 0.00 0.00 0.00 34 1013.7
20211016203207 79 0 0.0 0.0 0.00 0.00 0.00 32 1013.8
20211016202645 79 0 0.0 0.0 0.00 0.00 0.00 31 1014.0
20211016202122 78 0 0.0 0.0 0.00 0.00 0.00 31 1014.0
20211016201601 77 0 0.0 0.0 0.00 0.00 0.00 31 1014.0
20211016201039 76 0 0.0 0.0 0.00 0.00 0.00 30 1014.1
20211016200517 76 0 0.0 0.0 0.00 0.00 0.00 31 1014.2
20211016195955 76 0 0.0 0.0 0.00 0.00 0.00 30 1014.3
20211016195432 76 0 0.0 0.0 0.00 0.00 0.00 31 1014.4
20211016194910 75 0 0.0 0.0 0.00 0.00 0.00 33 1014.4
20211016194348 74 0 0.0 0.0 0.00 0.00 0.00 34 1014.6
20211016193826 73 0 0.0 0.0 0.00 0.00 0.00 33 1014.7
20211016193304 73 0 0.0 0.0 0.00 0.00 0.00 37 1014.8
20211016192743 73 0 0.0 0.0 0.00 0.00 0.00 36 1014.9
20211016192220 73 0 0.0 0.0 0.00 0.00 0.00 38 1015.1
20211016191658 72 0 0.0 0.0 0.00 0.00 0.00 41 1015.1
20211016191137 71 0 0.0 0.0 0.00 0.00 0.00 42 1015.2
20211016190614 71 0 0.0 0.0 0.00 0.00 0.00 43 1015.2
20211016190052 70 0 0.0 0.0 0.00 0.00 0.00 44 1015.3
20211016185530 70 0 0.0 0.0 0.00 0.00 0.00 47 1015.4
20211016185009 69 0 0.0 0.0 0.00 0.00 0.00 48 1015.5
20211016184447 70 0 0.0 0.0 0.00 0.00 0.00 48 1015.6
20211016183924 69 0 0.0 0.0 0.00 0.00 0.00 49 1015.7
20211016183403 69 0 0.0 0.0 0.00 0.00 0.00 48 1015.7
20211016182840 68 0 0.0 0.0 0.00 0.00 0.00 48 1015.8
20211016182318 68 0 0.0 0.0 0.00 0.00 0.00 49 1015.8
20211016181757 68 0 0.0 0.0 0.00 0.00 0.00 49 1015.8
20211016181234 67 0 0.0 0.0 0.00 0.00 0.00 51 1015.8
20211016180712 67 0 0.0 0.0 0.00 0.00 0.00 51 1015.9
20211016180150 67 0 0.0 0.0 0.00 0.00 0.00 52 1016.0
20211016175628 67 0 0.0 0.0 0.00 0.00 0.00 52 1016.0
20211016175107 66 0 0.0 0.0 0.00 0.00 0.00 56 1016.1
20211016174544 66 0 0.0 0.0 0.00 0.00 0.00 56 1016.2
20211016174022 66 0 0.0 0.0 0.00 0.00 0.00 57 1016.3
20211016173500 66 0 0.0 0.0 0.00 0.00 0.00 57 1016.4
20211016172938 66 0 0.0 0.0 0.00 0.00 0.00 57 1016.3
20211016172417 65 0 0.0 0.0 0.00 0.00 0.00 58 1016.4
20211016171855 65 0 0.0 0.0 0.00 0.00 0.00 60 1016.3
20211016171332 64 0 0.0 0.0 0.00 0.00 0.00 64 1016.4
20211016170811 63 0 0.0 0.0 0.00 0.00 0.00 65 1016.5
20211016170248 63 0 0.0 0.0 0.00 0.00 0.00 66 1016.4
20211016165726 63 0 0.0 0.0 0.00 0.00 0.00 65 1016.4
20211016165205 62 0 0.0 0.0 0.00 0.00 0.00 63 1016.5
20211016164642 62 0 0.0 0.0 0.00 0.00 0.00 67 1016.5
20211016164121 61 0 0.0 0.0 0.00 0.00 0.00 66 1016.4
20211016163558 61 0 0.0 0.0 0.00 0.00 0.00 69 1016.5
20211016163037 61 0 0.0 0.0 0.00 0.00 0.00 70 1016.5
20211016162514 60 0 0.0 0.0 0.00 0.00 0.00 71 1016.6
20211016161953 60 0 0.0 0.0 0.00 0.00 0.00 71 1016.5
20211016161431 59 0 0.0 0.0 0.00 0.00 0.00 70 1016.5
20211016160909 58 0 0.0 0.0 0.00 0.00 0.00 70 1016.6
20211016160346 57 0 0.0 0.0 0.00 0.00 0.00 72 1016.6
20211016155824 56 0 0.0 0.0 0.00 0.00 0.00 72 1016.6
20211016155304 55 0 0.0 0.0 0.00 0.00 0.00 75 1016.7
20211016154740 54 0 0.0 0.0 0.00 0.00 0.00 77 1016.7
20211016154218 53 0 0.0 0.0 0.00 0.00 0.00 79 1016.8
20211016153656 52 0 0.0 0.0 0.00 0.00 0.00 81 1016.8
20211016153134 51 0 0.0 0.0 0.00 0.00 0.00 83 1016.9
20211016152613 51 0 0.0 0.0 0.00 0.00 0.00 83 1016.9
20211016152050 50 0 0.0 0.0 0.00 0.00 0.00 83 1016.8
20211016151528 50 0 0.0 0.0 0.00 0.00 0.00 83 1016.8
20211016151006 49 0 0.0 0.0 0.00 0.00 0.00 82 1016.9
20211016150444 49 0 0.0 0.0 0.00 0.00 0.00 82 1016.8
20211016145923 48 0 0.0 0.0 0.00 0.00 0.00 82 1016.8